Flag for Canada Weather past 2 weeks in Steinbach, Manitoba, Canada

Now
39 °F

Chilly.


Feels Like: 37 °F
Forecast: 35 / 55 °F
Wind: 3 mph from Southeast

Location: Winnipeg The Forks


UV Index: 3 (Moderate)

Visibility: N/A


Pressure: 30.03 "Hg

Humidity: 49%

Dew point: 21 °F

Location of SteinbachLocation

Historic Weather in Steinbach

°F

Steinbach temperature yesterday

Maximum temperature yesterday: 56 °F (at 5:00 PM)
Minimum temperature yesterday: 34 °F (at 7:00 AM)
Average temperature yesterday: 45 °F

Past Weeks' High & Low Weather Summary

 TemperatureHumidityPressure
High56 °F (Apr 22, 5:00 PM)98% (Apr 12, 3:00 PM)30.45 "Hg (Apr 12, 3:00 PM)
Low10 °F (Apr 15, 1:00 AM)24% (Apr 18, 3:00 PM)29.31 "Hg (Apr 9, 4:00 PM)
Average34 °F60%30.03 "Hg
* Reported Apr 8 10:00 AM — Apr 23 2:00 AM, Steinbach, Weather by CustomWeather, © 2014

Note: Actual official high and low records may vary slightly from our data, if they occured in-between our weather recording intervals... More about our weather records

Advertising

Historic Weather Conditions — Data for Previous 24 hours

 ConditionsComfort  
Time TempWeatherWind HumidityBarometerVisibility
2:00 AM
Apr 23
39 °FChilly.3 mph49%30.03 "HgN/A
1:00 AM40 °FQuite cool.3 mph58%30.04 "HgN/A
12:00 AM44 °FQuite cool.3 mph56%30.04 "HgN/A
11:00 PM
Apr 22
45 °FCool.3 mph59%30.03 "HgN/A
10:00 PM47 °FCool.5 mph56%30.03 "HgN/A
9:00 PM49 °FCool.2 mph50%30.02 "HgN/A
8:00 PM53 °FCool.3 mph43%30.02 "HgN/A
7:00 PM55 °FRefreshingly cool.5 mph43%30.03 "HgN/A
6:00 PM56 °FRefreshingly cool.5 mph44%30.04 "HgN/A
5:00 PM56 °FRefreshingly cool.3 mph44%30.05 "HgN/A
4:00 PM55 °FRefreshingly cool.3 mph46%30.07 "HgN/A
3:00 PM54 °FCool.6 mph46%30.08 "HgN/A
2:00 PM53 °FCool.3 mph46%30.10 "HgN/A
1:00 PM51 °FCool.5 mph47%30.12 "HgN/A
12:00 PM50 °FCool.2 mph45%30.14 "HgN/A
11:00 AM48 °FCool.2 mph48%30.15 "HgN/A
10:00 AM43 °FQuite cool.1 mph60%30.15 "HgN/A
9:00 AM40 °FQuite cool.2 mph65%30.15 "HgN/A
8:00 AM38 °FChilly.2 mph73%30.15 "HgN/A
7:00 AM34 °FChilly.No wind85%30.15 "HgN/A
6:00 AM34 °FChilly.1 mph83%30.14 "HgN/A
5:00 AM36 °FChilly.1 mph80%30.15 "HgN/A
4:00 AM37 °FChilly.1 mph76%30.15 "HgN/A
3:00 AM38 °FChilly.1 mph73%30.15 "HgN/A
Weather by CustomWeather, © 2014

See weather overview